Погода в Сосновке

Россия / Кемеровская область (Кузбасс)     53°40′00″N   87°09′11″E
темп.,
°C
ветер,
м/с
пор.,
м/с
влажн.,
%
обл.,
%
осадки,
мм/ч
давл.,
гПа
погр.,
м
11 апреля, вс
вс1101:000всв22771 0.0 103827
04:00−1св11804 0.0 103919
07:00−1св12794 0.0 104050
10:00+3св23610 0.0 1040335
13:00+7св234488 0.0 1038678
16:00+9с33405 0.0 1037884
19:00+7ссз235573 0.0 1037167
22:00+3ссз2377100 0.0 1038108
12 апреля, пн
пн1201:00+2сз11796 0.0 103716
04:00+1с118240 0.0 103610
07:00+1в008096 0.0 103721
10:00+3ю007196 0.0 1035123
13:00+8юз1244100 0.0 1034450
16:00+10юз234380 0.0 1032700
19:00+10зюз255897 0.0 1031206
22:00+6юз2569100 0.0 1031122
13 апреля, вт
вт1301:00+4юз237287 0.0 103089
04:00+2ююз2382100 0.0 102958
07:00+1зюз1298100 1.3 1030103
10:00+1з1299100 1.8 1031119
13:00+2ссз149254 2.0 1032421
16:00+7сз354317 0.0 10311835
19:00+6зсз254816 0.0 1032699
22:00+3ююз378795 0.0 1034224
14 апреля, ср
ср1401:00+2ююз3686100 0.1 1034241
04:00+1юз378999 0.0 1034259
07:000ююз388928 0.0 1034292
10:00+4юз586693 0.0 1033761
13:00+8зюз575096 0.0 10311283
16:00+9зюз5749100 0.0 10291315
19:00+8зюз4858100 0.0 1028888
22:00+6юз3870100 0.0 1027335
15 апреля, чт
чт1501:00+4ююз2678100 0.0 1026174
04:00+3ююз3780100 0.0 1025185
07:00+3ююз277973 0.0 1024224
10:00+6ююз3662100 0.0 1024450
13:00+9юз3554100 0.0 1022720
16:00+11юз235184 0.0 1021890
19:00+11ююз116097 0.0 102021
22:00+7ю11775 0.0 102010